User: anonymous   Login
Location: Sabalos
(43.2860°N, 0.1414°E)
Time: 07:14:38
(UTC+00:00)
Language:

Cosmos 1151 Rocket - Orbit

View from above orbital plane
View from above orbital plane
View from above satellite
View from above satellite

Ground track
Ground track

The orbit data is extracted from the following two-line orbital elements,

1 11672U 80005B   20265.83135465 +.00000067 +00000-0 +46568-5 0  9997
2 11672 082.5173 033.5498 0015699 321.7627 038.2476 14.88006553179631
Epoch (UTC): 21 September 2020 19:57:09
Eccentricity: 0.0015699
inclination: 82.5173°
perigee height: 593 km
apogee height: 615 km
right ascension of ascending node: 33.5498°
argument of perigee: 321.7627°
revolutions per day: 14.88006553
mean anomaly at epoch: 38.2476°
orbit number at epoch: 17963

The dashed part of the orbit path shows where the satellite is in the earth's shadow,  

DLR